TITAN 3C TRANSTAGE DEB, 38692

Orbit data source: Space-Track

TITAN 3C TRANSTAGE DEB, 38692 is space debris in GEO originally from a launch on Thu, 26 Sep 1968 UTC launched from the Air Force Eastern Test Range (AFETR). Debris objects in space refer to the collection of defunct objects orbiting the Earth. Examples of debris include non-operational satellites, rocket bodies, and fragments generated from explosions, collisions, or faulty payload assembly.

Not visible in the next 10 days
Identifier
38692, 1968-081S
Orbit
GEO
Country
Flag of USUS
Related business
Manufacturer
Unknown
Mission
Spacecraft
Bus & Motor
Unknown
Mass
Unknown
Launch date (UTC)
1968-09-26 (57 years ago)
Launch vehicle
Unknown
Launch site
Air Force Eastern Test Range (AFETR)
Object type
Payload
Rocket body
Debris
Shape & HBR
Unknown shape, 1.1 m
Radar Cross Section
Small (<0.1 m²)

Expand to show TLE details & history
Last TLE update: 1 day ago

TLE from 1 day ago
0 TITAN 3C TRANSTAGE DEB
1 38692U 68081S   25347.29410219 -.00000150  00000-0  00000-0 0  9997
2 38692   1.7921   9.0454 0325621 302.7442  53.8356  0.99218011 39545
Epoch: 2025-12-13T07:03Z
TLE epoch observation values (Epoch: 2025-12-13T07:03:30.429Z)
Latitude
-0°
Longitude
-179.39327°
Altitude
35,303.877 km
Speed
3.121 km/s
True Right ascension
00h 34m 49s
True Declination
0° 00' 00"
Sunlit
Object was in daylight at epoch
Visualization orbit readout
Latitude
Unknown
Longitude
Unknown
Altitude
Unknown
Speed
Unknown
Apparent Right ascension
Unknown
Apparent Declination
Unknown
Sunlit
N/A
Visualization observer readout
Local Sidereal Time
13:21:45
Azimuth
Unknown
Elevation
Unknown
Doppler factor
Unknown
Orbital elements
Apogee altitude
37,468.392 km
Perigee altitude
34,702.97 km
Semi-major axis
42,463.818 km
Eccentricity
0.03256
Inclination
1.7921°
RAAN
9.0454°
Arg. of periapsis
302.7442°
True anomaly
56.92058°
Mean anomaly
53.8356°
Eccentric anomaly
55.37076°
Mean motion
0.24804 °/min
Orbital period
1,451.4 mins
BSTAR
0
Loading maneuver chart data...
Computing Atmospheric mass density...

Documentation

Showing up to 5 results
|